Date String (YYYY-MM-DD hh:mm:ss) UTC,Instrument flags,Ambient pressure (hPa),Sample flow (lpm),Bypass flow (lpm),Sample temperature (°C),Ambient temperature (°C),ASC tube jacket temperature (°C),LED temperature (°C),Box temperature (°C),Sample RH (%),Span deviation,Mass concentration (μg/m³),Mass concentration (μg/m³),Mass concentration (μg/m³)
DateTimeUTC,F1_M11,P_M11,Q1_M11,Q2_M11,T1_M11,T2_M11,T3_M11,T4_M11,T5_M11,U1_M11,ZSPAN_M11,X0_M11,X2_M11,X1_M11
2022-04-28 19:00:00,,0820.0,5.02,0.00,29.8,28.6,00.0,38.7,31.5,11.6,0002.3,0032.85,0010.38,0005.80
2022-04-28 19:01:00,,0820.0,4.99,0.00,29.7,26.5,00.0,38.6,31.0,11.6,0001.8,0031.28,0010.19,0005.79
2022-04-28 19:02:00,,0819.9,5.01,0.00,29.5,25.2,00.0,38.6,30.8,11.6,0001.1,0030.75,0010.09,0005.78
2022-04-28 19:03:00,,0819.9,4.99,0.00,29.5,25.6,00.0,38.6,30.8,11.9,0001.4,0029.87,0010.02,0005.78
2022-04-28 19:04:00,,0819.8,5.00,0.00,29.4,26.1,00.0,38.5,30.9,11.7,0002.4,0029.20,0010.00,0005.77
2022-04-28 19:05:00,,0819.9,4.99,0.00,29.4,26.6,00.0,38.5,31.0,11.9,0002.6,0028.51,0009.99,0005.76
2022-04-28 19:06:00,,0819.9,5.01,0.00,29.4,27.0,00.0,38.4,31.1,12.2,0001.4,0028.70,0010.03,0005.76
2022-04-28 19:07:00,,0819.9,5.01,0.00,29.4,27.4,00.0,38.4,31.2,11.9,0001.3,0029.44,0009.95,0005.73
2022-04-28 19:08:00,,0819.9,4.99,0.00,29.4,27.7,00.0,38.4,31.2,11.8,0001.2,0030.26,0009.94,0005.70
2022-04-28 19:09:00,,0819.9,5.01,0.00,29.5,27.9,00.0,38.4,31.2,12.0,0001.3,0030.91,0009.88,0005.69
2022-04-28 19:10:00,,0819.9,5.00,0.00,29.5,28.1,00.0,38.4,31.3,11.9,0000.8,0030.11,0009.80,0005.65
2022-04-28 19:11:00,,0819.9,4.99,0.00,29.5,28.2,00.0,38.4,31.3,12.1,0001.0,0029.06,0009.80,0005.63
2022-04-28 19:12:00,,0819.9,5.00,0.00,29.5,28.4,00.0,38.4,31.3,11.8,0001.5,0028.94,0009.93,0005.65
2022-04-28 19:13:00,,0819.9,5.00,0.00,29.5,28.5,00.0,38.4,31.4,11.9,0001.7,0028.91,0009.95,0005.66
2022-04-28 19:14:00,,0819.9,4.99,0.00,29.6,28.6,00.0,38.4,31.4,11.8,0001.3,0029.22,0009.94,0005.66
2022-04-28 19:15:00,,0819.8,5.01,0.00,29.6,28.7,00.0,38.5,31.4,11.9,0000.7,0030.19,0010.00,0005.64
2022-04-28 19:16:00,,0819.8,4.99,0.00,29.6,28.7,00.0,38.5,31.5,11.6,0000.6,0030.33,0010.00,0005.64
2022-04-28 19:17:00,,0819.7,5.01,0.00,29.7,28.8,00.0,38.5,31.5,11.5,0000.9,0029.63,0009.92,0005.64
2022-04-28 19:18:00,,0819.8,5.00,0.00,29.7,28.8,00.0,38.5,31.5,11.4,0001.2,0029.46,0010.02,0005.69
2022-04-28 19:19:00,,0819.8,4.99,0.00,29.7,28.9,00.0,38.5,31.5,11.6,0000.9,0028.10,0010.05,0005.73
2022-04-28 19:20:00,,0819.7,5.01,0.00,29.7,28.9,00.0,38.5,31.5,12.1,0001.1,0027.28,0009.97,0005.74
2022-04-28 19:21:00,,0819.7,5.01,0.00,29.7,28.3,00.0,38.5,31.3,11.9,0001.4,0028.45,0009.98,0005.79
2022-04-28 19:22:00,,0819.7,5.00,0.00,29.6,26.5,00.0,38.5,31.0,12.0,0001.7,0029.54,0010.06,0005.81
2022-04-28 19:23:00,,0819.6,5.00,0.00,29.5,26.4,00.0,38.5,30.9,12.1,0001.1,0029.79,0010.12,0005.84
2022-04-28 19:24:00,,0819.5,5.01,0.00,29.5,26.7,00.0,38.5,31.0,12.4,0001.5,0030.88,0010.17,0005.86
2022-04-28 19:25:00,,0819.6,4.99,0.00,29.5,27.1,00.0,38.4,31.1,12.2,0001.6,0031.20,0010.31,0005.92
2022-04-28 19:26:00,,0819.6,5.00,0.00,29.5,27.5,00.0,38.4,31.2,12.3,0001.5,0031.79,0010.29,0005.99
2022-04-28 19:27:00,,0819.5,4.99,0.00,29.5,27.8,00.0,38.4,31.3,12.4,0000.8,0032.87,0010.30,0006.04
2022-04-28 19:28:00,,0819.6,5.01,0.00,29.5,28.0,00.0,38.4,31.3,12.1,0000.6,0035.57,0010.40,0006.07
2022-04-28 19:29:00,,0819.5,4.98,0.00,29.5,28.2,00.0,38.4,31.4,12.0,0000.6,0036.51,0010.40,0006.09
2022-04-28 19:30:00,,0819.5,5.02,0.00,29.6,28.4,00.0,38.5,31.4,12.1,0000.8,0036.65,0010.33,0006.10
2022-04-28 19:31:00,,0819.5,4.98,0.00,29.6,28.5,00.0,38.5,31.4,11.9,-000.1,0036.79,0010.50,0006.15
2022-04-28 19:32:00,,0819.4,5.02,0.00,29.6,28.6,00.0,38.5,31.5,12.1,-000.3,0036.10,0010.57,0006.16
2022-04-28 19:33:00,,0819.4,5.00,0.00,29.7,28.7,00.0,38.5,31.5,12.0,-000.7,0035.41,0010.55,0006.16
2022-04-28 19:34:00,,0819.4,5.01,0.00,29.7,28.8,00.0,38.5,31.5,11.7,-000.2,0035.69,0010.47,0006.16
2022-04-28 19:35:00,,0819.4,5.00,0.00,29.7,28.9,00.0,38.5,31.5,11.6,0000.4,0035.24,0010.50,0006.16
2022-04-28 19:36:00,,0819.3,4.99,0.00,29.7,28.9,00.0,38.5,31.6,11.5,0000.4,0034.90,0010.36,0006.14
2022-04-28 19:37:00,,0819.4,5.01,0.00,29.7,28.3,00.0,38.6,31.4,11.8,0000.1,0034.70,0010.35,0006.12
2022-04-28 19:38:00,,0819.4,5.00,0.00,29.6,26.1,00.0,38.5,31.0,11.6,0000.8,0034.34,0010.35,0006.11
2022-04-28 19:39:00,,0819.3,5.01,0.00,29.5,25.3,00.0,38.5,30.8,11.6,0001.1,0032.17,0010.25,0006.10
2022-04-28 19:40:00,,0819.3,5.00,0.00,29.4,25.7,00.0,38.4,30.8,11.6,0001.3,0031.01,0010.26,0006.09
2022-04-28 19:41:00,,0819.2,5.01,0.00,29.3,26.2,00.0,38.4,30.9,11.7,0001.0,0031.08,0010.33,0006.09
2022-04-28 19:42:00,,0819.2,5.00,0.00,29.3,26.7,00.0,38.4,31.0,12.0,0002.1,0031.75,0010.27,0006.07
2022-04-28 19:43:00,,0819.2,4.99,0.00,29.3,27.0,00.0,38.4,31.1,12.2,0002.7,0032.43,0010.26,0006.03
2022-04-28 19:44:00,,0819.2,5.00,0.00,29.4,27.4,00.0,38.3,31.1,12.0,0003.0,0033.32,0010.25,0006.01
2022-04-28 19:45:00,,0819.2,5.02,0.00,29.4,27.6,00.0,38.3,31.2,11.9,0003.3,0033.38,0010.34,0006.01
2022-04-28 19:46:00,,0819.3,4.98,0.00,29.4,27.9,00.0,38.3,31.2,11.9,0003.2,0033.45,0010.25,0005.98
2022-04-28 19:47:00,,0819.2,5.00,0.00,29.4,28.1,00.0,38.3,31.2,11.8,0003.1,0033.67,0010.32,0005.97
2022-04-28 19:48:00,,0819.1,5.01,0.00,29.4,28.2,00.0,38.3,31.3,11.9,0003.3,0032.89,0010.34,0005.94
2022-04-28 19:49:00,,0819.1,4.98,0.00,29.5,28.3,00.0,38.4,31.3,11.8,0003.4,0031.96,0010.27,0005.91
2022-04-28 19:50:00,,0819.1,5.01,0.00,29.5,28.5,00.0,38.4,31.4,11.7,0002.9,0032.52,0010.30,0005.91
2022-04-28 19:51:00,,0819.1,5.00,0.00,29.5,28.6,00.0,38.4,31.4,11.7,0002.7,0032.43,0010.29,0005.92
2022-04-28 19:52:00,,0819.0,4.99,0.00,29.6,28.7,00.0,38.4,31.4,12.0,0002.9,0032.31,0010.26,0005.92
2022-04-28 19:53:00,,0819.0,5.02,0.00,29.6,28.7,00.0,38.4,31.5,11.8,0002.3,0031.78,0010.32,0005.91
2022-04-28 19:54:00,,0818.9,4.98,0.00,29.6,28.8,00.0,38.4,31.5,11.8,0002.2,0031.00,0010.32,0005.95
2022-04-28 19:55:00,,0818.9,5.01,0.00,29.6,28.8,00.0,38.5,31.5,11.5,0002.7,0033.53,0010.61,0006.02
2022-04-28 19:56:00,,0819.0,5.02,0.00,29.7,28.5,00.0,38.5,31.4,11.7,0002.6,0033.42,0010.59,0006.06
2022-04-28 19:57:00,,0818.9,5.00,0.00,29.6,26.4,00.0,38.5,30.9,11.7,0002.0,0034.73,0010.70,0006.12
2022-04-28 19:58:00,,0818.9,4.99,0.00,29.4,25.1,00.0,38.4,30.6,11.8,0002.0,0036.57,0010.88,0006.18
2022-04-28 19:59:00,,0819.0,5.01,0.00,29.3,25.5,00.0,38.4,30.7,11.8,0002.0,0037.12,0010.90,0006.20
